| time (UTC) | temp F | wind direction | speed knots | gust knots | rain 1hr in | rain 24hr in | rain mn in | humidity % | barometer mb |
| 20260507211553 | 59 | 340 | 2.6 | 3.5 | 0.00 | 0.00 | 0.00 | 43 | 1009.9 |
| 20260507211049 | 58 | 288 | 1.7 | 2.6 | 0.00 | 0.00 | 0.00 | 45 | 1009.9 |
| 20260507210547 | 57 | 338 | 1.7 | 2.6 | 0.00 | 0.00 | 0.00 | 47 | 1009.7 |
| 20260507210043 | 57 | 327 | 1.7 | 2.6 | 0.00 | 0.00 | 0.00 | 46 | 1009.6 |
| 20260507205540 | 57 | 214 | 1.7 | 1.7 | 0.00 | 0.00 | 0.00 | 43 | 1009.7 |
| 20260507205037 | 58 | 6 | 2.6 | 2.6 | 0.00 | 0.00 | 0.00 | 46 | 1009.7 |
| 20260507204533 | 59 | 354 | 3.5 | 3.5 | 0.00 | 0.00 | 0.00 | 44 | 1009.6 |
| 20260507204031 | 59 | 346 | 3.5 | 5.2 | 0.00 | 0.00 | 0.00 | 44 | 1009.6 |
| 20260507203529 | 58 | 73 | 1.7 | 3.5 | 0.00 | 0.00 | 0.00 | 47 | 1009.9 |
| 20260507203026 | 58 | 329 | 1.7 | 2.6 | 0.00 | 0.00 | 0.00 | 42 | 1009.8 |
| 20260507202521 | 58 | 283 | 2.6 | 5.2 | 0.00 | 0.00 | 0.00 | 43 | 1009.7 |
| 20260507202018 | 58 | 245 | 3.5 | 5.2 | 0.00 | 0.00 | 0.00 | 41 | 1009.6 |
| 20260507201513 | 57 | 318 | 1.7 | 2.6 | 0.00 | 0.00 | 0.00 | 44 | 1009.9 |
| 20260507201010 | 58 | 346 | 4.3 | 6.1 | 0.00 | 0.00 | 0.00 | 42 | 1010.0 |
| 20260507200505 | 58 | 198 | 1.7 | 3.5 | 0.00 | 0.00 | 0.00 | 40 | 1010.2 |
| 20260507200001 | 57 | 145 | 3.5 | 5.2 | 0.00 | 0.00 | 0.00 | 42 | 1010.1 |
| 20260507195459 | 58 | 333 | 3.5 | 3.5 | 0.00 | 0.00 | 0.00 | 40 | 1010.3 |
| 20260507194956 | 58 | 172 | 1.7 | 2.6 | 0.00 | 0.00 | 0.00 | 44 | 1010.2 |
| 20260507194453 | 59 | 287 | 3.5 | 7.0 | 0.00 | 0.00 | 0.00 | 41 | 1010.3 |
| 20260507193948 | 58 | 269 | 1.7 | 2.6 | 0.00 | 0.00 | 0.00 | 45 | 1010.2 |
| 20260507193446 | 58 | 88 | 2.6 | 2.6 | 0.00 | 0.00 | 0.00 | 42 | 1010.1 |
| 20260507192942 | 57 | 326 | 5.2 | 6.1 | 0.00 | 0.00 | 0.00 | 44 | 1010.3 |
| 20260507192438 | 57 | 286 | 0.9 | 0.9 | 0.00 | 0.00 | 0.00 | 44 | 1010.4 |
| 20260507191936 | 58 | 329 | 1.7 | 2.6 | 0.00 | 0.00 | 0.00 | 41 | 1010.4 |
| 20260507191432 | 58 | 286 | 2.6 | 2.6 | 0.00 | 0.00 | 0.00 | 42 | 1010.3 |
| 20260507190928 | 58 | 319 | 6.1 | 8.7 | 0.00 | 0.00 | 0.00 | 43 | 1010.4 |
| 20260507190426 | 58 | 346 | 5.2 | 7.0 | 0.00 | 0.00 | 0.00 | 43 | 1010.4 |
| 20260507185925 | 57 | 322 | 6.1 | 7.0 | 0.00 | 0.00 | 0.00 | 45 | 1010.3 |
| 20260507185422 | 58 | 0 | 2.6 | 2.6 | 0.00 | 0.00 | 0.00 | 43 | 1010.5 |
| 20260507184918 | 57 | 295 | 4.3 | 5.2 | 0.00 | 0.00 | 0.00 | 46 | 1010.5 |
| 20260507184416 | 58 | 283 | 2.6 | 2.6 | 0.00 | 0.00 | 0.00 | 42 | 1010.5 |
| 20260507183914 | 59 | 237 | 1.7 | 2.6 | 0.00 | 0.00 | 0.00 | 42 | 1010.6 |
| 20260507183410 | 58 | 264 | 0.9 | 0.9 | 0.00 | 0.00 | 0.00 | 43 | 1010.7 |
| 20260507182908 | 59 | 330 | 3.5 | 3.5 | 0.00 | 0.00 | 0.00 | 41 | 1010.5 |
| 20260507182403 | 59 | 327 | 1.7 | 2.6 | 0.00 | 0.00 | 0.00 | 44 | 1010.6 |
| 20260507181900 | 58 | 326 | 2.6 | 5.2 | 0.00 | 0.00 | 0.00 | 44 | 1010.4 |
| 20260507181356 | 57 | 269 | 0.9 | 1.7 | 0.00 | 0.00 | 0.00 | 44 | 1010.5 |
| 20260507180853 | 57 | 272 | 2.6 | 3.5 | 0.00 | 0.00 | 0.00 | 43 | 1010.6 |
| 20260507180349 | 56 | 268 | 0.9 | 0.9 | 0.00 | 0.00 | 0.00 | 46 | 1010.7 |
| 20260507175845 | 55 | 1 | 7.0 | 7.8 | 0.00 | 0.00 | 0.00 | 45 | 1010.5 |
| 20260507175343 | 57 | 230 | 0.9 | 0.9 | 0.00 | 0.00 | 0.00 | 43 | 1010.8 |
| 20260507174840 | 57 | 302 | 1.7 | 1.7 | 0.00 | 0.00 | 0.00 | 42 | 1010.8 |
| 20260507174337 | 58 | 258 | 0.9 | 0.9 | 0.00 | 0.00 | 0.00 | 45 | 1010.9 |
| 20260507173835 | 57 | 220 | 1.7 | 1.7 | 0.00 | 0.00 | 0.00 | 48 | 1011.0 |
| 20260507173332 | 57 | 331 | 5.2 | 8.7 | 0.00 | 0.00 | 0.00 | 42 | 1011.2 |
| 20260507172828 | 57 | 336 | 0.9 | 0.9 | 0.00 | 0.00 | 0.00 | 46 | 1011.0 |
| 20260507172325 | 56 | 217 | 1.7 | 1.7 | 0.00 | 0.00 | 0.00 | 49 | 1011.2 |
| 20260507171820 | 56 | 294 | 1.7 | 2.6 | 0.00 | 0.00 | 0.00 | 43 | 1011.4 |
| 20260507171318 | 58 | 254 | 0.0 | 0.9 | 0.00 | 0.00 | 0.00 | 43 | 1011.3 |
| 20260507170815 | 57 | 302 | 3.5 | 5.2 | 0.00 | 0.00 | 0.00 | 44 | 1011.3 |
| 20260507170311 | 57 | 262 | 0.9 | 0.9 | 0.00 | 0.00 | 0.00 | 43 | 1011.4 |
| 20260507165807 | 56 | 284 | 1.7 | 2.6 | 0.00 | 0.00 | 0.00 | 46 | 1011.5 |
| 20260507165306 | 56 | 7 | 1.7 | 3.5 | 0.00 | 0.00 | 0.00 | 47 | 1011.5 |
| 20260507164759 | 56 | 223 | 0.9 | 0.9 | 0.00 | 0.00 | 0.00 | 47 | 1011.6 |
| 20260507164256 | 56 | 232 | 0.9 | 1.7 | 0.00 | 0.00 | 0.00 | 46 | 1011.5 |
| 20260507163754 | 57 | 218 | 0.9 | 1.7 | 0.00 | 0.00 | 0.00 | 40 | 1011.6 |
| 20260507163251 | 56 | 31 | 0.0 | 0.9 | 0.00 | 0.00 | 0.00 | 42 | 1011.7 |
| 20260507162747 | 56 | 357 | 3.5 | 5.2 | 0.00 | 0.00 | 0.00 | 49 | 1011.9 |
| 20260507162243 | 56 | 256 | 1.7 | 2.6 | 0.00 | 0.00 | 0.00 | 41 | 1011.9 |
| 20260507161740 | 55 | 288 | 1.7 | 1.7 | 0.00 | 0.00 | 0.00 | 43 | 1011.9 |
| 20260507161237 | 55 | 281 | 2.6 | 3.5 | 0.00 | 0.00 | 0.00 | 42 | 1012.1 |
| 20260507160732 | 55 | 347 | 2.6 | 3.5 | 0.00 | 0.00 | 0.00 | 49 | 1011.8 |
| 20260507160229 | 54 | 244 | 1.7 | 1.7 | 0.00 | 0.00 | 0.00 | 50 | 1011.9 |
| 20260507155725 | 53 | 281 | 0.0 | 0.0 | 0.00 | 0.00 | 0.00 | 51 | 1011.9 |
| 20260507155221 | 54 | 6 | 3.5 | 3.5 | 0.00 | 0.00 | 0.00 | 45 | 1011.9 |
| 20260507154718 | 53 | 283 | 0.9 | 0.9 | 0.00 | 0.00 | 0.00 | 49 | 1012.0 |
| 20260507154216 | 54 | 259 | 0.9 | 1.7 | 0.00 | 0.00 | 0.00 | 46 | 1012.0 |
| 20260507153712 | 54 | 249 | 2.6 | 2.6 | 0.00 | 0.00 | 0.00 | 49 | 1012.0 |
| 20260507153209 | 53 | 260 | 0.9 | 1.7 | 0.00 | 0.00 | 0.00 | 47 | 1012.2 |
| 20260507152705 | 54 | 63 | 0.9 | 1.7 | 0.00 | 0.00 | 0.00 | 45 | 1012.1 |
| 20260507152201 | 54 | 328 | 1.7 | 2.6 | 0.00 | 0.00 | 0.00 | 47 | 1012.2 |
| 20260507151657 | 53 | 348 | 1.7 | 2.6 | 0.00 | 0.00 | 0.00 | 46 | 1012.3 |
| 20260507151154 | 53 | 23 | 0.9 | 0.9 | 0.00 | 0.00 | 0.00 | 45 | 1012.2 |
| 20260507150651 | 53 | 347 | 4.3 | 5.2 | 0.00 | 0.00 | 0.00 | 45 | 1012.5 |
| 20260507150148 | 53 | 312 | 1.7 | 1.7 | 0.00 | 0.00 | 0.00 | 48 | 1012.4 |
| 20260507145643 | 52 | 35 | 2.6 | 2.6 | 0.00 | 0.00 | 0.00 | 43 | 1012.4 |
| 20260507145141 | 53 | 303 | 1.7 | 1.7 | 0.00 | 0.00 | 0.00 | 47 | 1012.6 |
| 20260507144637 | 53 | 9 | 3.5 | 3.5 | 0.00 | 0.00 | 0.00 | 45 | 1012.7 |
| 20260507144136 | 53 | 269 | 0.9 | 0.9 | 0.00 | 0.00 | 0.00 | 42 | 1012.7 |
| 20260507143632 | 54 | 289 | 1.7 | 1.7 | 0.00 | 0.00 | 0.00 | 48 | 1012.6 |
| 20260507143129 | 53 | 278 | 0.9 | 0.9 | 0.00 | 0.00 | 0.00 | 44 | 1012.7 |
| 20260507142624 | 53 | 278 | 0.9 | 1.7 | 0.00 | 0.00 | 0.00 | 50 | 1013.0 |
| 20260507142122 | 53 | 342 | 3.5 | 3.5 | 0.00 | 0.00 | 0.00 | 45 | 1013.0 |
| 20260507141618 | 52 | 271 | 1.7 | 1.7 | 0.00 | 0.00 | 0.00 | 48 | 1012.7 |
| 20260507141115 | 52 | 269 | 0.9 | 0.9 | 0.00 | 0.00 | 0.00 | 47 | 1013.2 |
| 20260507140611 | 51 | 215 | 0.9 | 0.9 | 0.00 | 0.00 | 0.00 | 49 | 1013.2 |
| 20260507140109 | 51 | 8 | 1.7 | 2.6 | 0.00 | 0.00 | 0.00 | 49 | 1013.2 |
| 20260507135606 | 51 | 14 | 3.5 | 3.5 | 0.00 | 0.00 | 0.00 | 49 | 1013.3 |
| 20260507135103 | 51 | 331 | 3.5 | 5.2 | 0.00 | 0.00 | 0.00 | 50 | 1013.5 |
| 20260507134559 | 51 | 260 | 1.7 | 2.6 | 0.00 | 0.00 | 0.00 | 51 | 1013.5 |
| 20260507134055 | 51 | 323 | 4.3 | 5.2 | 0.00 | 0.00 | 0.00 | 51 | 1013.4 |
| 20260507133551 | 51 | 233 | 0.9 | 0.9 | 0.00 | 0.00 | 0.00 | 55 | 1013.6 |
| 20260507133049 | 50 | 270 | 0.9 | 0.9 | 0.00 | 0.00 | 0.00 | 54 | 1013.5 |
| 20260507132546 | 50 | 353 | 0.0 | 0.9 | 0.00 | 0.00 | 0.00 | 52 | 1013.6 |
| 20260507132042 | 50 | 171 | 0.0 | 0.9 | 0.00 | 0.00 | 0.00 | 52 | 1013.4 |
| 20260507131539 | 49 | 143 | 0.0 | 0.9 | 0.00 | 0.00 | 0.00 | 53 | 1013.3 |
| 20260507131036 | 49 | 29 | 1.7 | 2.6 | 0.00 | 0.00 | 0.00 | 53 | 1013.5 |
| 20260507130533 | 49 | 1 | 3.5 | 3.5 | 0.00 | 0.00 | 0.00 | 54 | 1013.5 |
| 20260507130031 | 49 | 336 | 2.6 | 2.6 | 0.00 | 0.00 | 0.00 | 52 | 1013.5 |
| 20260507125529 | 48 | 318 | 2.6 | 2.6 | 0.00 | 0.00 | 0.00 | 54 | 1013.6 |
| 20260507125027 | 48 | 350 | 1.7 | 2.6 | 0.00 | 0.00 | 0.00 | 55 | 1013.6 |
| 20260507124523 | 48 | 4 | 1.7 | 2.6 | 0.00 | 0.00 | 0.00 | 55 | 1013.6 |
| 20260507124021 | 48 | 7 | 2.6 | 2.6 | 0.00 | 0.00 | 0.00 | 55 | 1013.6 |
| 20260507123519 | 48 | 232 | 1.7 | 1.7 | 0.00 | 0.00 | 0.00 | 59 | 1013.6 |
| 20260507123015 | 48 | 28 | 0.9 | 1.7 | 0.00 | 0.00 | 0.00 | 59 | 1013.6 |
| 20260507122510 | 48 | 286 | 0.0 | 0.0 | 0.00 | 0.00 | 0.00 | 61 | 1013.5 |
| 20260507122007 | 47 | 206 | 0.0 | 0.0 | 0.00 | 0.00 | 0.00 | 59 | 1013.6 |
| 20260507121502 | 47 | 160 | 0.9 | 0.9 | 0.00 | 0.00 | 0.00 | 65 | 1013.7 |
| 20260507120958 | 47 | 272 | 0.9 | 0.9 | 0.00 | 0.00 | 0.00 | 64 | 1013.5 |
| 20260507120454 | 47 | 250 | 0.9 | 0.9 | 0.00 | 0.00 | 0.00 | 64 | 1013.4 |
| 20260507115952 | 46 | 248 | 0.0 | 0.0 | 0.00 | 0.00 | 0.00 | 68 | 1013.5 |
| 20260507115448 | 46 | 278 | 0.9 | 0.9 | 0.00 | 0.00 | 0.00 | 68 | 1013.6 |
| 20260507114943 | 45 | 279 | 0.0 | 0.9 | 0.00 | 0.00 | 0.00 | 73 | 1013.6 |
| 20260507114440 | 44 | 282 | 0.9 | 0.9 | 0.00 | 0.00 | 0.00 | 75 | 1013.7 |
| 20260507113937 | 44 | 275 | 0.0 | 0.0 | 0.00 | 0.00 | 0.00 | 76 | 1013.5 |
| 20260507113434 | 44 | 272 | 0.0 | 0.9 | 0.00 | 0.00 | 0.00 | 75 | 1013.4 |
| 20260507112932 | 44 | 165 | 0.0 | 0.0 | 0.00 | 0.00 | 0.00 | 75 | 1013.3 |
| 20260507112429 | 44 | 276 | 0.9 | 0.9 | 0.00 | 0.00 | 0.00 | 76 | 1013.2 |
| 20260507111926 | 43 | 198 | 0.0 | 0.0 | 0.00 | 0.00 | 0.00 | 80 | 1013.1 |
| 20260507111423 | 42 | 199 | 0.0 | 0.0 | 0.00 | 0.00 | 0.00 | 81 | 1013.2 |
| 20260507110920 | 41 | 190 | 0.0 | 0.0 | 0.00 | 0.00 | 0.00 | 82 | 1013.1 |
| 20260507110415 | 41 | 191 | 0.0 | 0.0 | 0.00 | 0.00 | 0.00 | 83 | 1013.0 |
| 20260507105913 | 41 | 192 | 0.9 | 0.9 | 0.00 | 0.00 | 0.00 | 82 | 1013.0 |
| 20260507105409 | 40 | 192 | 0.9 | 1.7 | 0.00 | 0.00 | 0.00 | 83 | 1013.0 |
| 20260507104906 | 40 | 202 | 0.9 | 0.9 | 0.00 | 0.00 | 0.00 | 84 | 1012.7 |
| 20260507104402 | 40 | 201 | 0.0 | 0.0 | 0.00 | 0.00 | 0.00 | 84 | 1012.7 |
| 20260507103858 | 40 | 202 | 0.0 | 0.0 | 0.00 | 0.00 | 0.00 | 84 | 1012.6 |
| 20260507103355 | 40 | 202 | 0.0 | 0.0 | 0.00 | 0.00 | 0.00 | 82 | 1012.7 |
| 20260507102851 | 40 | 202 | 0.0 | 0.0 | 0.00 | 0.00 | 0.00 | 81 | 1012.7 |
| 20260507102348 | 40 | 201 | 0.0 | 0.0 | 0.00 | 0.00 | 0.00 | 80 | 1012.5 |
| 20260507101844 | 40 | 179 | 0.0 | 0.0 | 0.00 | 0.00 | 0.00 | 79 | 1012.7 |
| 20260507101344 | 41 | 179 | 0.0 | 0.9 | 0.00 | 0.00 | 0.00 | 76 | 1012.7 |
| 20260507100842 | 41 | 178 | 0.0 | 0.0 | 0.00 | 0.00 | 0.00 | 76 | 1012.6 |
| 20260507100340 | 41 | 178 | 0.0 | 0.0 | 0.00 | 0.00 | 0.00 | 77 | 1012.7 |
| 20260507095838 | 41 | 178 | 0.9 | 0.9 | 0.00 | 0.10 | 0.10 | 78 | 1012.6 |
| 20260507095334 | 41 | 179 | 0.0 | 0.0 | 0.00 | 0.10 | 0.10 | 77 | 1012.9 |
| 20260507094831 | 41 | 179 | 0.0 | 0.0 | 0.00 | 0.10 | 0.10 | 77 | 1012.6 |
| 20260507094328 | 41 | 179 | 0.0 | 0.0 | 0.00 | 0.10 | 0.10 | 78 | 1012.5 |
| 20260507093825 | 42 | 290 | 0.0 | 0.0 | 0.00 | 0.10 | 0.10 | 76 | 1012.4 |
| 20260507093324 | 42 | 299 | 0.0 | 0.0 | 0.00 | 0.10 | 0.10 | 74 | 1012.5 |
| 20260507092821 | 42 | 299 | 0.0 | 0.0 | 0.00 | 0.10 | 0.10 | 73 | 1012.7 |
| 20260507092317 | 43 | 300 | 0.0 | 0.0 | 0.00 | 0.10 | 0.10 | 74 | 1012.5 |
| 20260507091813 | 43 | 300 | 0.0 | 0.0 | 0.00 | 0.10 | 0.10 | 74 | 1012.6 |
| 20260507091311 | 43 | 304 | 0.0 | 0.0 | 0.00 | 0.10 | 0.10 | 74 | 1012.5 |
| 20260507090811 | 43 | 304 | 0.0 | 0.0 | 0.00 | 0.10 | 0.10 | 73 | 1012.5 |
| 20260507090308 | 43 | 304 | 0.0 | 0.0 | 0.00 | 0.10 | 0.10 | 72 | 1012.5 |
| 20260507085805 | 43 | 304 | 0.0 | 0.0 | 0.00 | 0.10 | 0.10 | 71 | 1012.4 |
| 20260507085301 | 43 | 304 | 0.0 | 0.0 | 0.00 | 0.10 | 0.10 | 71 | 1012.3 |
| 20260507084759 | 43 | 304 | 0.0 | 0.0 | 0.00 | 0.10 | 0.10 | 71 | 1012.6 |
| 20260507084255 | 43 | 304 | 0.0 | 0.0 | 0.00 | 0.10 | 0.10 | 71 | 1012.5 |
| 20260507083753 | 43 | 301 | 0.0 | 0.0 | 0.00 | 0.10 | 0.10 | 72 | 1012.5 |
| 20260507083249 | 43 | 327 | 0.0 | 0.0 | 0.00 | 0.10 | 0.10 | 72 | 1012.9 |
| 20260507082745 | 43 | 341 | 0.0 | 0.0 | 0.00 | 0.10 | 0.10 | 72 | 1012.7 |
| 20260507082241 | 43 | 352 | 0.0 | 0.0 | 0.00 | 0.10 | 0.10 | 73 | 1012.6 |
| 20260507081738 | 43 | 352 | 0.0 | 0.0 | 0.00 | 0.10 | 0.10 | 72 | 1012.6 |
| 20260507081234 | 43 | 352 | 0.0 | 0.0 | 0.00 | 0.10 | 0.10 | 72 | 1012.6 |
| 20260507080731 | 43 | 352 | 0.0 | 0.0 | 0.00 | 0.10 | 0.10 | 71 | 1012.7 |
| 20260507080227 | 43 | 352 | 0.0 | 0.0 | 0.00 | 0.10 | 0.10 | 73 | 1012.7 |
| 20260507075722 | 43 | 353 | 0.0 | 0.0 | 0.00 | 0.10 | 0.10 | 71 | 1012.6 |
| 20260507075219 | 43 | 0 | 0.0 | 0.0 | 0.00 | 0.10 | 0.10 | 72 | 1012.4 |
| 20260507074715 | 43 | 0 | 0.0 | 0.0 | 0.00 | 0.10 | 0.10 | 73 | 1012.5 |
| 20260507074214 | 43 | 0 | 0.0 | 0.0 | 0.00 | 0.10 | 0.10 | 76 | 1012.6 |
| 20260507073710 | 44 | 0 | 0.0 | 0.0 | 0.00 | 0.10 | 0.10 | 77 | 1012.6 |
| 20260507073206 | 44 | 0 | 0.0 | 0.0 | 0.00 | 0.10 | 0.10 | 77 | 1012.6 |
| 20260507072704 | 44 | 0 | 0.0 | 0.0 | 0.00 | 0.10 | 0.10 | 79 | 1012.6 |
| 20260507072201 | 44 | 0 | 0.0 | 0.0 | 0.00 | 0.10 | 0.10 | 78 | 1012.7 |
| 20260507071659 | 44 | 23 | 0.0 | 0.0 | 0.00 | 0.10 | 0.10 | 75 | 1012.4 |
| 20260507071155 | 44 | 343 | 0.9 | 0.9 | 0.00 | 0.10 | 0.10 | 79 | 1012.5 |
| 20260507070652 | 44 | 4 | 0.0 | 0.0 | 0.00 | 0.10 | 0.10 | 77 | 1012.6 |
| 20260507070149 | 44 | 4 | 0.0 | 0.0 | 0.00 | 0.10 | 0.10 | 77 | 1012.6 |
| 20260507065646 | 44 | 353 | 0.0 | 0.0 | 0.00 | 0.10 | 0.10 | 76 | 1012.6 |
| 20260507065142 | 44 | 322 | 1.7 | 1.7 | 0.00 | 0.10 | 0.10 | 77 | 1012.7 |
| 20260507064640 | 44 | 2 | 0.9 | 0.9 | 0.00 | 0.10 | 0.10 | 78 | 1012.6 |
| 20260507064138 | 44 | 337 | 0.0 | 0.0 | 0.00 | 0.10 | 0.10 | 78 | 1012.4 |
| 20260507063636 | 44 | 16 | 0.0 | 0.0 | 0.00 | 0.10 | 0.10 | 80 | 1012.5 |
| 20260507063132 | 44 | 4 | 0.0 | 0.9 | 0.00 | 0.10 | 0.10 | 80 | 1012.6 |
| 20260507062629 | 45 | 6 | 0.9 | 0.9 | 0.00 | 0.10 | 0.10 | 81 | 1012.4 |
| 20260507062127 | 44 | 17 | 0.0 | 0.9 | 0.00 | 0.10 | 0.10 | 81 | 1012.4 |
| 20260507061624 | 45 | 17 | 0.0 | 0.9 | 0.00 | 0.10 | 0.10 | 83 | 1012.6 |
| 20260507061122 | 45 | 12 | 0.0 | 0.0 | 0.00 | 0.10 | 0.10 | 83 | 1012.7 |
| 20260507060620 | 45 | 340 | 0.9 | 0.9 | 0.00 | 0.10 | 0.10 | 82 | 1012.6 |
| 20260507060116 | 45 | 334 | 0.9 | 0.9 | 0.00 | 0.10 | 0.10 | 83 | 1012.7 |
| 20260507055612 | 45 | 13 | 0.0 | 0.9 | 0.00 | 0.10 | 0.10 | 83 | 1012.7 |
| 20260507055108 | 45 | 6 | 0.0 | 0.0 | 0.00 | 0.10 | 0.10 | 84 | 1013.0 |
| 20260507054604 | 45 | 11 | 0.0 | 0.0 | 0.00 | 0.10 | 0.10 | 86 | 1013.1 |
| 20260507054101 | 45 | 15 | 0.0 | 0.0 | 0.00 | 0.10 | 0.10 | 85 | 1013.1 |
| 20260507053559 | 45 | 10 | 0.0 | 0.0 | 0.00 | 0.10 | 0.10 | 85 | 1013.2 |
| 20260507053058 | 45 | 10 | 0.0 | 0.0 | 0.00 | 0.10 | 0.10 | 85 | 1013.0 |
| 20260507052555 | 45 | 9 | 0.0 | 0.0 | 0.00 | 0.10 | 0.10 | 85 | 1013.2 |
| 20260507052051 | 45 | 9 | 0.0 | 0.9 | 0.00 | 0.10 | 0.10 | 85 | 1013.2 |
| 20260507051549 | 45 | 356 | 0.9 | 0.9 | 0.00 | 0.10 | 0.10 | 86 | 1013.1 |
| 20260507051046 | 45 | 12 | 0.0 | 0.9 | 0.00 | 0.10 | 0.10 | 87 | 1013.1 |
| 20260507050542 | 45 | 18 | 0.0 | 0.0 | 0.00 | 0.10 | 0.10 | 89 | 1013.3 |
| 20260507050039 | 45 | 4 | 0.0 | 0.9 | 0.00 | 0.10 | 0.10 | 89 | 1013.2 |
| 20260507045536 | 45 | 10 | 0.0 | 0.9 | 0.00 | 0.10 | 0.10 | 90 | 1012.9 |
| 20260507045033 | 45 | 10 | 0.0 | 0.0 | 0.00 | 0.10 | 0.10 | 90 | 1012.9 |
| 20260507044529 | 45 | 10 | 0.0 | 0.0 | 0.00 | 0.10 | 0.10 | 90 | 1013.0 |
| 20260507044026 | 45 | 10 | 0.0 | 0.0 | 0.00 | 0.10 | 0.10 | 90 | 1013.0 |
| 20260507043522 | 45 | 10 | 0.9 | 0.9 | 0.00 | 0.10 | 0.10 | 90 | 1013.1 |
| 20260507043020 | 45 | 0 | 0.0 | 0.0 | 0.00 | 0.10 | 0.10 | 89 | 1013.0 |
| 20260507042515 | 45 | 354 | 0.9 | 0.9 | 0.00 | 0.10 | 0.10 | 89 | 1013.1 |
| 20260507042011 | 46 | 17 | 0.0 | 0.0 | 0.00 | 0.10 | 0.10 | 89 | 1012.6 |
| 20260507041508 | 46 | 14 | 0.9 | 1.7 | 0.00 | 0.10 | 0.10 | 89 | 1012.9 |
| 20260507041005 | 46 | 349 | 3.5 | 3.5 | 0.00 | 0.10 | 0.10 | 89 | 1013.2 |
| 20260507040501 | 47 | 5 | 2.6 | 3.5 | 0.00 | 0.10 | 0.10 | 88 | 1013.0 |
| 20260507035957 | 47 | 320 | 1.7 | 1.7 | 0.00 | 0.10 | 0.10 | 87 | 1013.3 |
| 20260507035454 | 47 | 20 | 1.7 | 2.6 | 0.00 | 0.10 | 0.10 | 87 | 1012.9 |
| 20260507034950 | 47 | 343 | 0.0 | 0.0 | 0.00 | 0.10 | 0.10 | 87 | 1013.0 |
| 20260507034447 | 48 | 347 | 0.0 | 0.0 | 0.00 | 0.10 | 0.10 | 87 | 1012.9 |
| 20260507033945 | 48 | 325 | 0.0 | 0.0 | 0.00 | 0.10 | 0.10 | 87 | 1013.1 |
| 20260507033443 | 48 | 322 | 0.9 | 0.9 | 0.00 | 0.10 | 0.10 | 87 | 1013.3 |
| 20260507032940 | 48 | 275 | 0.0 | 0.0 | 0.00 | 0.10 | 0.10 | 87 | 1013.3 |
| 20260507032437 | 48 | 347 | 0.0 | 0.0 | 0.00 | 0.10 | 0.10 | 88 | 1013.2 |
| 20260507031932 | 48 | 26 | 0.0 | 0.9 | 0.00 | 0.10 | 0.10 | 88 | 1013.2 |
| 20260507031429 | 48 | 323 | 0.0 | 0.0 | 0.00 | 0.10 | 0.10 | 89 | 1013.0 |
| 20260507030926 | 48 | 311 | 0.0 | 0.0 | 0.00 | 0.10 | 0.10 | 89 | 1013.3 |
| 20260507030423 | 48 | 312 | 0.0 | 0.0 | 0.00 | 0.10 | 0.10 | 89 | 1013.1 |
| 20260507025921 | 48 | 312 | 0.0 | 0.0 | 0.00 | 0.10 | 0.10 | 89 | 1012.9 |
| 20260507025418 | 48 | 281 | 0.0 | 0.0 | 0.00 | 0.10 | 0.10 | 89 | 1012.7 |
| 20260507024915 | 48 | 281 | 0.0 | 0.0 | 0.00 | 0.10 | 0.10 | 89 | 1012.5 |
| 20260507024413 | 48 | 281 | 0.0 | 0.0 | 0.00 | 0.10 | 0.10 | 88 | 1012.6 |
| 20260507023908 | 48 | 281 | 0.0 | 0.0 | 0.00 | 0.10 | 0.10 | 88 | 1012.7 |
| 20260507023405 | 48 | 281 | 0.0 | 0.0 | 0.00 | 0.10 | 0.10 | 88 | 1012.9 |
| 20260507022903 | 48 | 281 | 0.0 | 0.0 | 0.00 | 0.10 | 0.10 | 88 | 1012.9 |
| 20260507022359 | 48 | 281 | 0.0 | 0.0 | 0.00 | 0.10 | 0.10 | 88 | 1012.7 |
| 20260507021855 | 48 | 281 | 0.0 | 0.0 | 0.00 | 0.10 | 0.10 | 88 | 1012.6 |
| 20260507021350 | 48 | 282 | 0.0 | 0.9 | 0.00 | 0.10 | 0.10 | 88 | 1012.9 |
| 20260507020848 | 48 | 188 | 0.0 | 0.0 | 0.00 | 0.10 | 0.10 | 88 | 1012.6 |
| 20260507020345 | 48 | 188 | 0.0 | 0.0 | 0.00 | 0.10 | 0.10 | 88 | 1012.5 |
| 20260507015842 | 48 | 188 | 0.0 | 0.0 | 0.00 | 0.10 | 0.10 | 88 | 1012.3 |
| 20260507015340 | 48 | 133 | 0.0 | 0.0 | 0.00 | 0.10 | 0.10 | 87 | 1012.1 |
| 20260507014837 | 48 | 40 | 0.0 | 0.0 | 0.00 | 0.10 | 0.10 | 87 | 1012.1 |
| 20260507014333 | 48 | 324 | 0.0 | 0.0 | 0.00 | 0.10 | 0.10 | 87 | 1012.2 |
| 20260507013829 | 48 | 324 | 0.0 | 0.0 | 0.00 | 0.10 | 0.10 | 87 | 1012.2 |
| 20260507013327 | 48 | 323 | 0.0 | 0.9 | 0.00 | 0.10 | 0.10 | 87 | 1012.3 |
| 20260507012824 | 48 | 323 | 0.0 | 0.0 | 0.00 | 0.10 | 0.10 | 87 | 1012.1 |
| 20260507012320 | 48 | 330 | 0.0 | 0.0 | 0.00 | 0.10 | 0.10 | 86 | 1011.9 |
| 20260507011817 | 48 | 330 | 0.0 | 0.0 | 0.00 | 0.10 | 0.10 | 86 | 1012.0 |
| 20260507011314 | 48 | 330 | 0.0 | 0.9 | 0.00 | 0.10 | 0.10 | 85 | 1012.3 |
| 20260507010814 | 48 | 313 | 0.9 | 1.7 | 0.00 | 0.10 | 0.10 | 86 | 1012.1 |
| 20260507010310 | 48 | 334 | 0.0 | 0.9 | 0.00 | 0.10 | 0.10 | 86 | 1012.2 |
| 20260507005807 | 48 | 0 | 0.0 | 0.0 | 0.00 | 0.10 | 0.10 | 86 | 1012.2 |
| 20260507005305 | 48 | 319 | 0.9 | 0.9 | 0.00 | 0.10 | 0.10 | 85 | 1012.3 |
| 20260507004800 | 48 | 340 | 0.9 | 1.7 | 0.00 | 0.10 | 0.10 | 85 | 1012.2 |
| 20260507004258 | 48 | 344 | 0.9 | 0.9 | 0.00 | 0.10 | 0.10 | 85 | 1012.2 |
| 20260507003754 | 48 | 338 | 0.9 | 1.7 | 0.00 | 0.10 | 0.10 | 85 | 1012.3 |
| 20260507003249 | 48 | 32 | 0.9 | 0.9 | 0.00 | 0.10 | 0.10 | 85 | 1012.3 |
| 20260507002745 | 48 | 10 | 0.9 | 0.9 | 0.00 | 0.10 | 0.10 | 86 | 1012.3 |
| 20260507002242 | 48 | 344 | 0.0 | 0.9 | 0.00 | 0.10 | 0.10 | 86 | 1012.5 |
| 20260507001738 | 48 | 308 | 0.9 | 0.9 | 0.00 | 0.10 | 0.10 | 86 | 1012.7 |
| 20260507001236 | 48 | 342 | 0.9 | 0.9 | 0.00 | 0.10 | 0.10 | 86 | 1012.6 |
| 20260507000732 | 48 | 216 | 0.9 | 1.7 | 0.00 | 0.10 | 0.10 | 86 | 1012.6 |
| 20260507000228 | 48 | 351 | 1.7 | 1.7 | 0.00 | 0.10 | 0.10 | 85 | 1012.5 |
| 20260506235725 | 49 | 25 | 1.7 | 3.5 | 0.00 | 0.10 | 0.10 | 85 | 1012.4 |
| 20260506235220 | 49 | 329 | 1.7 | 1.7 | 0.00 | 0.10 | 0.10 | 85 | 1012.2 |
| 20260506234717 | 49 | 16 | 1.7 | 2.6 | 0.00 | 0.10 | 0.10 | 85 | 1012.1 |
| 20260506234215 | 49 | 16 | 0.9 | 0.9 | 0.00 | 0.10 | 0.10 | 85 | 1011.8 |
| 20260506233712 | 49 | 336 | 1.7 | 2.6 | 0.00 | 0.10 | 0.10 | 86 | 1012.1 |
| 20260506233208 | 49 | 358 | 1.7 | 1.7 | 0.00 | 0.10 | 0.10 | 86 | 1012.3 |
| 20260506232706 | 49 | 1 | 1.7 | 2.6 | 0.00 | 0.10 | 0.10 | 87 | 1012.1 |
| 20260506232200 | 50 | 312 | 0.0 | 0.9 | 0.00 | 0.10 | 0.10 | 87 | 1012.0 |
| 20260506231658 | 50 | 323 | 1.7 | 1.7 | 0.00 | 0.10 | 0.10 | 87 | 1011.9 |
| 20260506231156 | 50 | 334 | 2.6 | 2.6 | 0.00 | 0.10 | 0.10 | 88 | 1011.8 |
| 20260506230652 | 50 | 313 | 0.9 | 0.9 | 0.00 | 0.10 | 0.10 | 88 | 1011.7 |
| 20260506230149 | 50 | 324 | 1.7 | 2.6 | 0.00 | 0.10 | 0.10 | 88 | 1011.8 |
| 20260506225646 | 50 | 330 | 2.6 | 2.6 | 0.00 | 0.10 | 0.10 | 88 | 1011.6 |
| 20260506225143 | 50 | 339 | 2.6 | 3.5 | 0.00 | 0.10 | 0.10 | 89 | 1011.4 |
| 20260506224639 | 50 | 334 | 3.5 | 3.5 | 0.00 | 0.10 | 0.10 | 89 | 1011.4 |
| 20260506224136 | 50 | 320 | 3.5 | 5.2 | 0.00 | 0.10 | 0.10 | 89 | 1011.4 |
| 20260506223632 | 50 | 21 | 0.9 | 1.7 | 0.00 | 0.10 | 0.10 | 89 | 1011.4 |
| 20260506223128 | 50 | 319 | 1.7 | 2.6 | 0.00 | 0.10 | 0.10 | 88 | 1011.5 |
| 20260506222625 | 50 | 9 | 1.7 | 1.7 | 0.00 | 0.10 | 0.10 | 89 | 1011.5 |
| 20260506222121 | 50 | 252 | 0.9 | 0.9 | 0.00 | 0.10 | 0.10 | 90 | 1011.4 |
| 20260506221619 | 50 | 212 | 0.0 | 0.0 | 0.00 | 0.10 | 0.10 | 90 | 1011.3 |
| 20260506221117 | 50 | 264 | 0.0 | 0.9 | 0.00 | 0.10 | 0.10 | 90 | 1011.3 |
| 20260506220613 | 50 | 259 | 0.0 | 0.0 | 0.00 | 0.10 | 0.10 | 91 | 1011.4 |
| 20260506220109 | 50 | 267 | 0.0 | 0.0 | 0.00 | 0.10 | 0.10 | 92 | 1011.3 |
| 20260506215606 | 50 | 255 | 0.0 | 0.0 | 0.00 | 0.10 | 0.10 | 92 | 1011.4 |
| 20260506215101 | 50 | 12 | 0.9 | 1.7 | 0.00 | 0.10 | 0.10 | 92 | 1011.3 |
| 20260506214558 | 49 | 334 | 0.9 | 0.9 | 0.00 | 0.10 | 0.10 | 93 | 1011.3 |
| 20260506214056 | 49 | 17 | 2.6 | 3.5 | 0.00 | 0.10 | 0.10 | 93 | 1011.2 |
| 20260506213554 | 50 | 318 | 3.5 | 3.5 | 0.00 | 0.10 | 0.10 | 92 | 1010.8 |
| 20260506213051 | 49 | 4 | 0.9 | 0.9 | 0.00 | 0.10 | 0.10 | 92 | 1011.2 |
| 20260506212547 | 50 | 327 | 2.6 | 2.6 | 0.00 | 0.10 | 0.10 | 92 | 1010.8 |
| 20260506212042 | 50 | 343 | 1.7 | 1.7 | 0.00 | 0.10 | 0.10 | 92 | 1010.8 |